Regional Weather Roundup
Issued by NWS Grand Forks, ND

Home | Current Version | Previous Version | Text Only | Print | Product List | Glossary Off
Versions: 1 2 3 4 5 6 7 8 9 10 11 12 13 14 15 16 17 18 19 20 21 22 23 24 25 26 27 28 29 30 31 32 33 34 35 36 37 38 39 40 41 42 43 44 45 46 47 48 49 50

000
ASUS43 KFGF 202110
RWRFGF
PRAIRIE TO PINES  WEATHER ROUNDUP
NATIONAL WEATHER SERVICE EASTERN NORTH DAKOTA/GRAND FORKS ND
300 PM CST FRI JAN 20 2017

 **SATELLITE DATA USED TO AUGMENT SKY COVER AT AUTOMATED STATIONS**
 *****  WEATHER ACROSS EASTERN NORTH DAKOTA  *****

CITY           SKY/WX    TMP DP  RH WIND       PRES   REMARKS
GRAND FORKS    FOG       36  33  89 SE8       29.45F VSB 1
GRAND FRKS AFB CLOUDY    34  34  99 SE8       29.45S FOG
DEVILS LAKE    CLOUDY    34  33  96 SE10      29.39F FOG
FARGO          CLOUDY    38  35  89 SE14      29.44F FOG
WAHPETON ARPT  CLOUDY    34  32  93 SE13      29.44S WCI  25
$$

 ***** WEATHER ACROSS CENTRAL AND WESTERN NORTH DAKOTA  *****

CITY           SKY/WX    TMP DP  RH WIND       PRES   REMARKS
BISMARCK       CLOUDY    31  29  92 CALM      29.35S FOG
MINOT          FAIR      27  23  85 S12       29.34S WCI  17
JAMESTOWN      CLOUDY    34  34 100 E12       29.36F FOG
MINOT AFB      FAIR      26  22  83 SE7       29.34S WCI  18
GARRISON         N/A     23  22  96 S3        29.33F
WILLISTON      FAIR      31  25  78 W13       29.33F WCI  21
DICKINSON      FAIR      32  27  81 NW13      29.28F WCI  22
HETTINGER      FAIR      32  27  81 NW12      29.29F WCI  23
$$

 *****  OTHER AIRPORT OBSERVATIONS IN OUR AREA  *****

CITY           SKY/WX    TMP DP  RH WIND       PRES   REMARKS
WALHALLA       NOT AVBL
GRAFTON AIRPOR FOG       34  34 100 SE9       29.48S VSB 1/4
VALLEY CITY AR FOG       32  32 100 SE8       29.42R VSB 1/2 WCI  25
CANDO          NOT AVBL
CAVALIER APRT  FOG       36  36 100 S9        29.46S VSB 1
GWINNER        CLOUDY    36  36 100 E14       29.40R VSB<1/4
SHEYENNE NWR     N/A     34  33  97 SE10      29.95S
ROLLA            N/A    N/A N/A N/A MISG        N/A
 ***** THE ABOVE OBSERVATIONS ARE NON NWS ARE NOT QUALITY
       CONTROLLED AND MAY MIS-REPORT RAIN FOR SNOW...
$$

  *****  WEATHER ACROSS NORTHERN MINNESOTA  *****

CITY           SKY/WX    TMP DP  RH WIND       PRES   REMARKS
FLAG ISLAND    DRIZZLE   37  36  93 CALM      29.51S
WARROAD        LGT RAIN  37  34  87 SE7       29.51S
ROSEAU         LGT RAIN  37  34  87 SE6       29.50R
HALLOCK        CLOUDY    37  36  93 SE8       29.48R FOG
THF RVR FALLS  CLOUDY    35  34  96 SE7       29.48F FOG
BAUDETTE       LGT RAIN  37  35  92 SE7       29.51R FOG
WASKISH        LGT RAIN  37  36  93 E3        29.51F
CROOKSTON      CLOUDY    34  34 100 SE8       29.48S FOG
GREENBUSH NDAW   N/A     36  34  93 SE5         N/A
$$
  *****  WEATHER ACROSS CENTRAL AND WEST MINNESOTA  *****

CITY           SKY/WX    TMP DP  RH WIND       PRES   REMARKS
FOSSTON        CLOUDY    36  36 100 SE8       29.48S
BEMIDJI        CLOUDY    34  34  99 SE7       29.50S FOG
PARK RAPIDS    FOG       35  32  88 SE9       29.48F VSB 3/4
ELBOW LAKE     CLOUDY    34  34 100 SE9       29.46S FOG
WADENA         CLOUDY    34  34 100 SE8       29.49R FOG
DETROIT LAKES  CLOUDY    34  34 100 SE10      29.48R FOG
MOORHEAD       CLOUDY    36  34  93 SE7       29.46S
FERGUS FALLS   CLOUDY    36  36 100 SE13      29.49F
MORRIS MN      CLOUDY    36  34  93 SE10      29.45S FOG
STAPLES        CLOUDY    34  34 100 SE5       29.50S FOG
$$
  *****  WEATHER ELSEWHERE ACROSS MINNESOTA  *****

CITY           SKY/WX    TMP DP  RH WIND       PRES   REMARKS
DULUTH         LGT SNOW  34  33  96 E12       29.58R FOG
INTRNTL FALLS  LGT RAIN  37  34  89 SE6       29.54S
ELY            LGT RAIN  37  34  87 CALM      29.58R
CLOQUET        MIX PCPN  34  34 100 E7        29.57S VSB 1
WHEATON        CLOUDY    41  41 100 E15       29.45S FOG
BRAINERD       CLOUDY    35  34  96 SE6       29.52F FOG
HIBBING        LGT RAIN  34  34 100 SE9       29.56R FOG
ALEXANDRIA     CLOUDY    34  33  96 SE8       29.48F FOG
SAINT CLOUD    FOG       34  34 100 SE6       29.53R VSB 1/4
MINNEAPOLIS    CLOUDY    36  34  92 SE9       29.54F FOG
$$

  *****  WEATHER ACROSS SOUTH DAKOTA  *****

CITY           SKY/WX    TMP DP  RH WIND       PRES   REMARKS
SIOUX FALLS    CLOUDY    40  40 100 S13       29.42S FOG
BROOKINGS      FOG       37  36  96 S15       29.39R VSB 3/4
WATERTOWN      CLOUDY    35  35 100 S13       29.37S FOG
HURON          FAIR      43  36  76 S13       29.34R
SISSETON         N/A     35  35 100 SE9       29.40S
ABERDEEN       CLOUDY    35  32  88 SE9       29.35S
MITCHELL       FAIR      48  37  65 S18G24    29.35F
PIERRE         FAIR      20  17  88 SW6       29.31S WCI  12
MOBRIDGE       CLOUDY    29  26  89 N3        29.28S FOG
RAPID CITY     FAIR      41  31  67 NW25G31   29.30R
$$

  *****  SOME WEATHER IN NEARBY STATES *****

CITY           SKY/WX    TMP DP  RH WIND       PRES   REMARKS
GLASGOW MT     FAIR      35  28  75 W10       29.35F
GREAT FALLS MT FAIR      42  24  49 SW10      29.35F
CHEYENNE WY    CLOUDY    38  20  48 NW16G24   29.36F
SCOTTSBLUFF NE CLOUDY    41  32  70 NW15      29.36S
OMAHA NE       DRIZZLE   43  39  86 SE9       29.46F FOG
DES MOINES IA  CLOUDY    43  41  93 SE7       29.52F FOG
DAVENPORT IA   CLOUDY    44  41  89 S9        29.59R
CHICAGO IL     CLOUDY    41  39  93 SE3       29.62R FOG
EAU CLAIRE WI  CLOUDY    36  35  96 E8        29.57F FOG
LA CROSSE WI   CLOUDY    41  36  82 SE8       29.59R
$$

  *****  SOME NATIONAL WEATHER *****

CITY           SKY/WX    TMP DP  RH WIND       PRES   REMARKS
LA GUARDIA NY  LGT RAIN  45  35  68 S6        29.94R
RALEIGH NC     CLOUDY    59  54  83 W5        29.85S
ATLANTA GA     FAIR      74  54  49 SW9G20    29.82S
NEW ORLEANS LA PTSUNNY   77  67  71 N7        29.78S
OKLAHOMA CITY  FAIR      68  33  27 SW23      29.48F
ALBUQUERQUE NM CLOUDY    42  26  53 SW8       29.67F
SALT LAKE CITY PTSUNNY   41  30  65 S18       29.46F
LOS ANGELES CA LGT RAIN  58  56  93 SW25G31   29.47F FOG
BOISE ID       FAIR      43  26  51 SE17      29.26F
SEATTLE WA     CLOUDY    51  31  46 SE16G25   29.10F
$$

*** WEATHER ACROSS MANITOBA...SASKATCHEWAN AND ONTARIO ***
                ***ONTARIO***

CITY           SKY/WX    TMP DP  RH WIND       PRES   REMARKS
GERALDTON      FOG       36  36 100 SW6       29.64R VSB 1/4
THUNDER BAY    CLOUDY    32  32 100 E2        29.66S FOG
SIOUX LOOKOUT  FOG       36  36 100 SE3       29.58S VSB 1/8
TORONTO        LGT RAIN  37  36  93 E8        29.72S
BIG TROUT LK   CLOUDY    27  25  93 VRB2      29.63  FOG
PICKLE LAKE    FOG       34  34 100 SW10      29.59R VSB 1/4
DRYDEN         CLOUDY    37  37 100 SE7       29.55S FOG
KENORA         NOT AVBL
$$
                *** MANITOBA***

CITY           SKY/WX    TMP DP  RH WIND       PRES   REMARKS
BRANDON        CLOUDY    21  16  79 N6        29.40F WCI  14
DAUPHIN        SUNNY     28  23  80 E6        29.37S WCI  22
ISLAND LAKE    CLOUDY    28  28 100 S3        29.55R FOG
PILOT MOUND      N/A     34  32  93 S12         N/A
THE PAS        MOSUNNY   32  23  69 SE10      29.39R WCI  24
THOMPSON       LGT SNOW  28  28 100 E5        29.52R FOG     WCI  23
WINNIPEG       DRIZZLE   36  36 100 SE10      29.48R FOG
LYNN LAKE      CLOUDY    28  28 100 SE12G17   29.44S FOG     WCI  18
GILLAM         CLOUDY    27  25  93 E5        29.60S FOG     WCI  21
$$
                ***SASKATCHEWAN***

CITY           SKY/WX    TMP DP  RH WIND       PRES   REMARKS
ESTEVAN        CLOUDY    23  21  93 CALM      29.33R FOG
KINDERSLEY     PTSUNNY   36  30  80 NW5       29.30S
LLOYDMINSTER   PTSUNNY   34  30  86 NW5       29.32F
PRINCE ALBERT  PTSUNNY   34  30  86 W5        29.30S
REGINA         PTSUNNY   30  28  93 SE5       29.31R
YORKTON        SUNNY     28  25  86 VRB2      29.30F
N. BATTLEFORD  SUNNY     30  27  86 NW8       29.34S WCI  23
LA RONGE       CLOUDY    28  28 100 NE8       29.34R WCI  20
SASKATOON      CLOUDY    34  30  86 N3        29.32R
SWIFT CURRENT  CLOUDY    39  27  60 W10       29.29S
$$
NOTE: THESE ARE AUTOMATED STATIONS WITH LIMITED QUALITY CONTROL
      "FAIR" INDICATES FEW OR NO CLOUDS BELOW 12,000 FEET WITH NO
      SIGNIFICANT WEATHER AND/OR OBSTRUCTIONS TO VISIBILITY.
      SKY/WX - SKY CONDITION AND SIGNIFICANT WEATHER.
      TMP - AIR TEMPERATURE.    DP   - DEWPOINT TEMPERATURE.
      RH  - RELATIVE HUMIDITY.  PRES - PRESSURE.
      HX  - HEAT INDEX.         WCI  - WIND CHILL INDEX.
$



USA.gov is the U.S. government's official web portal to all federal, state and local government web resources and services.